Regional Weather Roundup
Issued by NWS Newport/Morehead, NC

Current Version | Previous Version | Text Only | Print | Product List | Glossary On
Versions: 1 2 3 4 5 6 7 8 9 10 11 12 13 14 15 16 17 18 19 20 21 22 23 24 25 26 27 28 29 30 31 32 33 34 35 36 37 38 39 40 41 42 43 44 45 46 47 48 49 50
110 ASUS42 KMHX 240825 RWRMHX WEATHER ROUNDUP FOR EASTERN NORTH CAROLINA NATIONAL WEATHER SERVICE NEWPORT/MOREHEAD CITY NC 300 AM EST FRI FEB 24 2017 NOTE: "FAIR" INDICATES FEW OR NO CLOUDS BELOW 12,000 FEET WITH NO SIGNIFICANT WEATHER AND/OR OBSTRUCTIONS TO VISIBILITY NCZ015>017-031-032-045>047-102-103-240900- NORTH COAST CITY SKY/WX TMP DP RH WIND PRES REMARKS EDENTON CLOUDY 56 54 91 CALM 29.94S ELIZABETH CITY CLEAR 53 52 96 CALM 29.93F KITTY HAWK NOT AVBL MANTEO CLOUDY 60 59 95 S9 29.95S $$ NCZ045>047-081-094-103-104-240900- CENTRAL COAST CITY SKY/WX TMP DP RH WIND PRES REMARKS FRISCO CLOUDY 66 61 84 SE9 29.92F HAZE $$ NCZ095-097-098-100-101-240900- SOUTHERN COAST CITY SKY/WX TMP DP RH WIND PRES REMARKS BEAUFORT CLOUDY 60 59 96 CALM 29.91F CEDAR ISLAND NOT AVBL JACKSONVILLE CLEAR 56 56 100 CALM 29.91F PINEY ISLAND NOT AVBL WILMINGTON PTCLDY 57 56 96 NE5 29.89F $$ NCZ011>013-027>030-043-044-078>080-089-090>093-098-240900- COASTAL PLAIN CITY SKY/WX TMP DP RH WIND PRES REMARKS AHOSKIE N/A 50 50 99 S3 29.93S CLINTON CLEAR 53 53 100 CALM 29.91F ELIZABETHTOWN CLEAR 54 54 100 CALM 29.90F GOLDSBORO CLEAR 53 53 100 CALM 29.90F GREENVILLE FOG 50 50 100 CALM 29.94F VSB 1/2 HAVELOCK CLOUDY 59 56 89 CALM 29.92 KENANSVILLE MOCLDY 52 52 100 CALM 29.91F FOG KINSTON FOG 51 51 99 CALM 29.93F VSB 1/4 NEW BERN MOCLDY 54 54 100 CALM 29.93F FOG RICHLANDS CLEAR 56 55 97 NE5 29.92F ROCKY MOUNT FOG 49 49 100 CALM 29.92F VSB 1/4 WASHINGTON CLEAR 51 50 97 CALM 29.93S WHITEVILLE CLEAR 56 55 97 CALM 29.89F $$ AMZ130-135-150-152-154-156-158-170-250-252-270-ANZ085-086-088-633-658-670-240900- MARINE OBSERVATIONS STATION/POSITION TIME TEMP WIND PRES WAVE SWELL AIR SEA DIR/SP/G HT/PER HT/PER (UTC) (F) (DEG/KT/KT) (MB) (FT/S) (FT/S) CHESAPEAKE LIGHT NOT AVBL 64 E VA BEACH 0750 57 54 90/ 6/ 8 1013.9 4/12 3/12 DUCK 0800 55 49 130/ 5/ 5 1013.3 2 E DUCK 0800 50 N/A 4/12 2/12 OREGON INLET 0800 60 56 240/ 6/ 8 1013.8 13E OREGON INLT NOT AVBL HATTERAS CG 0800 65 62 130/ 7/ 9 1012.9 DIAMOND BUOY 0750 71 73 140/ 16/ 19 1012.7 6/ 7 3/11 CAPE LOOKOUT 0800 64 CALM / 1 1012.3 BEAUFORT LAB 0800 60 57 10/ 4/ 6 1011.7 30 SE NEW RVR IN 0708 67 120/ 10/ 16 1012.3 30 SE NEW RVR IN 0813 69 N/A 7/ 8 2/11 27 SE WRIGHTSVLE 0808 67 66 40/ 4/ 10 1011.2 5 SE WRIGHTSVLE 0708 59 58 20/ 8/ 12 1012.1 225 S CAPE HAT 0750 68 69 90/ 21/ 27 1007.8 11/ 8 7/11 41 SE CHARLESTON 0750 71 70 70/ 12/ 14 1009.7 10/10 10/10 $$

USA.gov is the U.S. government's official web portal to all federal, state and local government web resources and services.